Check out our new BloomSky Weather System.

Active alerts

Galveston, TX
  Details for Galveston, TX Rip Current Statement


Thunder radar  blitzortung!


Rain radar more information rain snow radar


Visit our other weather sites:

Template documentation
and downloads

And another site



Weather Underground History page Text

Daily Summary for January 25, 2018 Units:  Both    English   Metric
« Previous Day
Next Day »
Daily Weekly Monthly Yearly Custom
  High: Low: Average:
Temperature: TemperatureF °F /  -17.8 °C 32.0 °F /  0 °C 47.2 °F /  8.4 °C
Dew Point: DewpointF °F /  -17.8 °C 29.7 °F /  -1.3 °C 34.8 °F /  1.6 °C
Humidity: Humidity % 30 % 66 %
Wind Speed: WindSpeedMPH mph /  0 km/h - 1.5 mph /  2.4 km/h
Wind Gust: WindSpeedGustMPH mph /  0 km/h - -
Wind:- - SE
Pressure: PressureIn in /  0 hPa 30.35 in /  1027.7 hPa -
Precipitation: 0.00 in /  0 mm    
Historical Graphs
 
 
Tabular Data for January 25, 2018
Time Temperature Dew Point Pressure Wind Wind Speed Wind Gust Humidity Rainfall Rate (Hourly)
TemperatureF °F /  -17.8 °C DewpointF °F /  -17.8 °C PressureIn in /  0 hPa Calm     Humidity % HourlyPrecipIn in /  0 mm
00:03 37.9 °F /  3.3 °C 32.7 °F /  0.4 °C 30.43 in /  1030.4 hPa Calm     81 % 0.00 in /  0 mm
00:08 37.8 °F /  3.2 °C 32.7 °F /  0.4 °C 30.43 in /  1030.4 hPa Calm     82 % 0.00 in /  0 mm
00:13 37.8 °F /  3.2 °C 33.1 °F /  0.6 °C 30.43 in /  1030.4 hPa Calm     83 % 0.00 in /  0 mm
00:18 37.8 °F /  3.2 °C 33.1 °F /  0.6 °C 30.43 in /  1030.4 hPa Calm     83 % 0.00 in /  0 mm
00:23 37.9 °F /  3.3 °C 33.3 °F /  0.7 °C 30.43 in /  1030.4 hPa Calm     83 % 0.00 in /  0 mm
00:28 37.9 °F /  3.3 °C 33.6 °F /  0.9 °C 30.43 in /  1030.4 hPa Calm     84 % 0.00 in /  0 mm
00:33 37.9 °F /  3.3 °C 33.6 °F /  0.9 °C 30.43 in /  1030.4 hPa Calm     84 % 0.00 in /  0 mm
00:39 37.9 °F /  3.3 °C 33.6 °F /  0.9 °C 30.43 in /  1030.4 hPa Calm     84 % 0.00 in /  0 mm
00:44 37.8 °F /  3.2 °C 33.4 °F /  0.8 °C 30.43 in /  1030.4 hPa Calm     84 % 0.00 in /  0 mm
00:49 37.2 °F /  2.9 °C 32.5 °F /  0.3 °C 30.43 in /  1030.4 hPa Calm     83 % 0.00 in /  0 mm
00:54 36.9 °F /  2.7 °C 32.2 °F /  0.1 °C 30.43 in /  1030.4 hPa Calm     83 % 0.00 in /  0 mm
00:59 36.3 °F /  2.4 °C 32.0 °F /  0 °C 30.43 in /  1030.4 hPa Calm     84 % 0.00 in /  0 mm
01:04 35.8 °F /  2.1 °C 31.5 °F /  -0.3 °C 30.43 in /  1030.4 hPa Calm     84 % 0.00 in /  0 mm
01:09 35.8 °F /  2.1 °C 32.0 °F /  0 °C 30.43 in /  1030.4 hPa Calm     86 % 0.00 in /  0 mm
01:14 36.0 °F /  2.2 °C 32.5 °F /  0.3 °C 30.43 in /  1030.4 hPa Calm     87 % 0.00 in /  0 mm
01:19 36.3 °F /  2.4 °C 32.9 °F /  0.5 °C 30.43 in /  1030.4 hPa Calm     87 % 0.00 in /  0 mm
01:24 36.3 °F /  2.4 °C 32.9 °F /  0.5 °C 30.43 in /  1030.4 hPa Calm     87 % 0.00 in /  0 mm
01:29 36.0 °F /  2.2 °C 32.5 °F /  0.3 °C 30.43 in /  1030.4 hPa Calm     87 % 0.00 in /  0 mm
01:34 36.0 °F /  2.2 °C 32.5 °F /  0.3 °C 30.43 in /  1030.4 hPa Calm     87 % 0.00 in /  0 mm
01:39 35.6 °F /  2 °C 32.2 °F /  0.1 °C 30.43 in /  1030.4 hPa Calm     87 % 0.00 in /  0 mm
01:44 35.2 °F /  1.8 °C 31.8 °F /  -0.1 °C 30.43 in /  1030.4 hPa Calm     87 % 0.00 in /  0 mm
01:49 35.4 °F /  1.9 °C 32.0 °F /  0 °C 30.43 in /  1030.4 hPa Calm     87 % 0.00 in /  0 mm
01:54 35.4 °F /  1.9 °C 32.2 °F /  0.1 °C 30.43 in /  1030.4 hPa Calm     88 % 0.00 in /  0 mm
01:59 35.2 °F /  1.8 °C 32.0 °F /  0 °C 30.43 in /  1030.4 hPa Calm     88 % 0.00 in /  0 mm
02:04 35.1 °F /  1.7 °C 31.8 °F /  -0.1 °C 30.43 in /  1030.4 hPa Calm     88 % 0.00 in /  0 mm
02:09 34.7 °F /  1.5 °C 31.5 °F /  -0.3 °C 30.43 in /  1030.4 hPa Calm     88 % 0.00 in /  0 mm
02:14 34.3 °F /  1.3 °C 31.5 °F /  -0.3 °C 30.43 in /  1030.4 hPa Calm     89 % 0.00 in /  0 mm
02:19 34.3 °F /  1.3 °C 31.6 °F /  -0.2 °C 30.43 in /  1030.4 hPa Calm     90 % 0.00 in /  0 mm
02:25 34.3 °F /  1.3 °C 31.6 °F /  -0.2 °C 30.43 in /  1030.4 hPa Calm     90 % 0.00 in /  0 mm
02:30 34.3 °F /  1.3 °C 31.6 °F /  -0.2 °C 30.43 in /  1030.4 hPa Calm     90 % 0.00 in /  0 mm
02:35 34.5 °F /  1.4 °C 31.8 °F /  -0.1 °C 30.43 in /  1030.4 hPa Calm     90 % 0.00 in /  0 mm
02:40 34.9 °F /  1.6 °C 32.5 °F /  0.3 °C 30.43 in /  1030.4 hPa Calm     91 % 0.00 in /  0 mm
02:45 35.1 °F /  1.7 °C 32.7 °F /  0.4 °C 30.43 in /  1030.4 hPa Calm     91 % 0.00 in /  0 mm
02:50 35.1 °F /  1.7 °C 32.4 °F /  0.2 °C 30.43 in /  1030.4 hPa Calm     90 % 0.00 in /  0 mm
02:55 35.1 °F /  1.7 °C 32.4 °F /  0.2 °C 30.43 in /  1030.4 hPa Calm     90 % 0.00 in /  0 mm
03:00 35.1 °F /  1.7 °C 32.7 °F /  0.4 °C 30.43 in /  1030.4 hPa Calm     91 % 0.00 in /  0 mm
03:05 35.1 °F /  1.7 °C 32.7 °F /  0.4 °C 30.43 in /  1030.4 hPa Calm     91 % 0.00 in /  0 mm
03:10 34.7 °F /  1.5 °C 32.4 °F /  0.2 °C 30.43 in /  1030.4 hPa Calm     91 % 0.00 in /  0 mm
03:15 34.3 °F /  1.3 °C 31.6 °F /  -0.2 °C 30.43 in /  1030.4 hPa Calm     90 % 0.00 in /  0 mm
03:20 34.3 °F /  1.3 °C 31.6 °F /  -0.2 °C 30.43 in /  1030.4 hPa Calm     90 % 0.00 in /  0 mm
03:25 34.2 °F /  1.2 °C 31.8 °F /  -0.1 °C 30.43 in /  1030.4 hPa Calm     91 % 0.00 in /  0 mm
03:30 34.0 °F /  1.1 °C 31.6 °F /  -0.2 °C 30.43 in /  1030.4 hPa Calm     91 % 0.00 in /  0 mm
03:35 33.6 °F /  0.9 °C 31.3 °F /  -0.4 °C 30.43 in /  1030.4 hPa Calm     91 % 0.00 in /  0 mm
03:40 33.6 °F /  0.9 °C 31.3 °F /  -0.4 °C 30.43 in /  1030.4 hPa Calm     91 % 0.00 in /  0 mm
03:45 33.8 °F /  1 °C 31.6 °F /  -0.2 °C 30.43 in /  1030.4 hPa Calm     92 % 0.00 in /  0 mm
03:50 34.0 °F /  1.1 °C 31.8 °F /  -0.1 °C 30.43 in /  1030.4 hPa Calm     92 % 0.00 in /  0 mm
03:55 34.0 °F /  1.1 °C 31.8 °F /  -0.1 °C 30.43 in /  1030.4 hPa Calm     92 % 0.00 in /  0 mm
04:00 33.6 °F /  0.9 °C 31.3 °F /  -0.4 °C 30.43 in /  1030.4 hPa Calm     91 % 0.00 in /  0 mm
04:05 33.4 °F /  0.8 °C 31.1 °F /  -0.5 °C 30.43 in /  1030.4 hPa Calm     91 % 0.00 in /  0 mm
04:10 33.1 °F /  0.6 °C 30.7 °F /  -0.7 °C 30.43 in /  1030.4 hPa Calm     91 % 0.00 in /  0 mm
04:15 32.7 °F /  0.4 °C 30.4 °F /  -0.9 °C 30.43 in /  1030.4 hPa Calm     91 % 0.00 in /  0 mm
04:20 32.7 °F /  0.4 °C 30.7 °F /  -0.7 °C 30.43 in /  1030.4 hPa Calm     92 % 0.00 in /  0 mm
04:25 32.9 °F /  0.5 °C 30.9 °F /  -0.6 °C 30.43 in /  1030.4 hPa Calm     92 % 0.00 in /  0 mm
04:30 32.9 °F /  0.5 °C 30.9 °F /  -0.6 °C 30.43 in /  1030.4 hPa Calm     92 % 0.00 in /  0 mm
04:36 32.7 °F /  0.4 °C 30.7 °F /  -0.7 °C 30.43 in /  1030.4 hPa Calm     92 % 0.00 in /  0 mm
04:41 32.7 °F /  0.4 °C 30.7 °F /  -0.7 °C 30.43 in /  1030.4 hPa Calm     92 % 0.00 in /  0 mm
04:46 32.7 °F /  0.4 °C 30.9 °F /  -0.6 °C 30.43 in /  1030.4 hPa Calm     93 % 0.00 in /  0 mm
04:51 32.9 °F /  0.5 °C 31.1 °F /  -0.5 °C 30.43 in /  1030.4 hPa Calm     93 % 0.00 in /  0 mm
04:56 33.1 °F /  0.6 °C 31.3 °F /  -0.4 °C 30.43 in /  1030.4 hPa Calm     93 % 0.00 in /  0 mm
05:01 33.1 °F /  0.6 °C 31.3 °F /  -0.4 °C 30.43 in /  1030.4 hPa Calm     93 % 0.00 in /  0 mm
05:06 33.1 °F /  0.6 °C 31.3 °F /  -0.4 °C 30.43 in /  1030.4 hPa Calm     93 % 0.00 in /  0 mm
05:11 32.9 °F /  0.5 °C 31.1 °F /  -0.5 °C 30.43 in /  1030.4 hPa Calm     93 % 0.00 in /  0 mm
05:16 32.9 °F /  0.5 °C 31.1 °F /  -0.5 °C 30.43 in /  1030.4 hPa Calm     93 % 0.00 in /  0 mm
05:21 33.1 °F /  0.6 °C 31.3 °F /  -0.4 °C 30.44 in /  1030.7 hPa Calm     93 % 0.00 in /  0 mm
05:26 32.9 °F /  0.5 °C 31.1 °F /  -0.5 °C 30.44 in /  1030.7 hPa Calm     93 % 0.00 in /  0 mm
05:31 32.9 °F /  0.5 °C 31.1 °F /  -0.5 °C 30.44 in /  1030.7 hPa Calm     93 % 0.00 in /  0 mm
05:36 32.7 °F /  0.4 °C 30.9 °F /  -0.6 °C 30.44 in /  1030.7 hPa Calm     93 % 0.00 in /  0 mm
05:41 32.7 °F /  0.4 °C 31.1 °F /  -0.5 °C 30.44 in /  1030.7 hPa Calm     94 % 0.00 in /  0 mm
05:46 33.1 °F /  0.6 °C 31.5 °F /  -0.3 °C 30.44 in /  1030.7 hPa Calm     94 % 0.00 in /  0 mm
05:51 33.1 °F /  0.6 °C 31.3 °F /  -0.4 °C 30.44 in /  1030.7 hPa Calm     93 % 0.00 in /  0 mm
05:56 32.9 °F /  0.5 °C 31.1 °F /  -0.5 °C 30.44 in /  1030.7 hPa Calm     93 % 0.00 in /  0 mm
06:01 32.9 °F /  0.5 °C 31.1 °F /  -0.5 °C 30.44 in /  1030.7 hPa Calm     93 % 0.00 in /  0 mm
06:06 32.7 °F /  0.4 °C 30.9 °F /  -0.6 °C 30.44 in /  1030.7 hPa Calm     93 % 0.00 in /  0 mm
06:11 32.7 °F /  0.4 °C 30.9 °F /  -0.6 °C 30.44 in /  1030.7 hPa Calm     93 % 0.00 in /  0 mm
06:16 32.4 °F /  0.2 °C 30.6 °F /  -0.8 °C 30.44 in /  1030.7 hPa Calm     93 % 0.00 in /  0 mm
06:21 32.4 °F /  0.2 °C 30.7 °F /  -0.7 °C 30.44 in /  1030.7 hPa Calm     94 % 0.00 in /  0 mm
06:26 32.5 °F /  0.3 °C 30.9 °F /  -0.6 °C 30.44 in /  1030.7 hPa Calm     94 % 0.00 in /  0 mm
06:31 32.5 °F /  0.3 °C 30.9 °F /  -0.6 °C 30.44 in /  1030.7 hPa Calm     94 % 0.00 in /  0 mm
06:36 32.5 °F /  0.3 °C 30.9 °F /  -0.6 °C 30.44 in /  1030.7 hPa Calm     94 % 0.00 in /  0 mm
06:41 32.5 °F /  0.3 °C 30.9 °F /  -0.6 °C 30.44 in /  1030.7 hPa Calm     94 % 0.00 in /  0 mm
06:46 32.7 °F /  0.4 °C 31.1 °F /  -0.5 °C 30.45 in /  1031 hPa Calm     94 % 0.00 in /  0 mm
06:51 32.7 °F /  0.4 °C 31.1 °F /  -0.5 °C 30.45 in /  1031 hPa Calm     94 % 0.00 in /  0 mm
06:56 32.5 °F /  0.3 °C 30.9 °F /  -0.6 °C 30.45 in /  1031 hPa Calm     94 % 0.00 in /  0 mm
07:02 32.4 °F /  0.2 °C 30.7 °F /  -0.7 °C 30.45 in /  1031 hPa Calm     94 % 0.00 in /  0 mm
07:07 32.2 °F /  0.1 °C 30.6 °F /  -0.8 °C 30.45 in /  1031 hPa Calm     94 % 0.00 in /  0 mm
07:12 32.0 °F /  0 °C 30.6 °F /  -0.8 °C 30.45 in /  1031 hPa Calm     94 % 0.00 in /  0 mm
07:17 32.4 °F /  0.2 °C 30.7 °F /  -0.7 °C 30.45 in /  1031 hPa Calm     94 % 0.00 in /  0 mm
07:22 32.5 °F /  0.3 °C 30.9 °F /  -0.6 °C 30.45 in /  1031 hPa Calm     94 % 0.00 in /  0 mm
07:27 32.5 °F /  0.3 °C 30.9 °F /  -0.6 °C 30.45 in /  1031 hPa Calm   1.0 mph /  1.6 km/h 94 % 0.00 in /  0 mm
07:32 32.7 °F /  0.4 °C 31.1 °F /  -0.5 °C 30.45 in /  1031 hPa SE 1.0 mph /  1.6 km/h 1.0 mph /  1.6 km/h 94 % 0.00 in /  0 mm
07:37 32.7 °F /  0.4 °C 31.1 °F /  -0.5 °C 30.45 in /  1031 hPa Calm   1.0 mph /  1.6 km/h 94 % 0.00 in /  0 mm
07:42 33.1 °F /  0.6 °C 31.8 °F /  -0.1 °C 30.45 in /  1031 hPa Calm   1.0 mph /  1.6 km/h 95 % 0.00 in /  0 mm
07:47 33.4 °F /  0.8 °C 32.2 °F /  0.1 °C 30.45 in /  1031 hPa Calm   1.0 mph /  1.6 km/h 95 % 0.00 in /  0 mm
07:52 34.2 °F /  1.2 °C 32.9 °F /  0.5 °C 30.45 in /  1031 hPa Calm   1.0 mph /  1.6 km/h 95 % 0.00 in /  0 mm
07:57 35.1 °F /  1.7 °C 33.8 °F /  1 °C 30.45 in /  1031 hPa Calm   1.0 mph /  1.6 km/h 95 % 0.00 in /  0 mm
08:02 35.8 °F /  2.1 °C 34.5 °F /  1.4 °C 30.46 in /  1031.4 hPa Calm   1.0 mph /  1.6 km/h 95 % 0.00 in /  0 mm
08:07 36.7 °F /  2.6 °C 35.4 °F /  1.9 °C 30.46 in /  1031.4 hPa Calm   1.0 mph /  1.6 km/h 95 % 0.00 in /  0 mm
08:12 37.4 °F /  3 °C 36.1 °F /  2.3 °C 30.46 in /  1031.4 hPa Calm   1.0 mph /  1.6 km/h 95 % 0.00 in /  0 mm
08:17 38.5 °F /  3.6 °C 37.2 °F /  2.9 °C 30.46 in /  1031.4 hPa Calm   1.0 mph /  1.6 km/h 95 % 0.00 in /  0 mm
08:22 39.4 °F /  4.1 °C 38.1 °F /  3.4 °C 30.46 in /  1031.4 hPa Calm   1.0 mph /  1.6 km/h 95 % 0.00 in /  0 mm
08:27 39.9 °F /  4.4 °C 38.1 °F /  3.4 °C 30.46 in /  1031.4 hPa Calm   1.0 mph /  1.6 km/h 93 % 0.00 in /  0 mm
08:32 40.8 °F /  4.9 °C 39.0 °F /  3.9 °C 30.46 in /  1031.4 hPa Calm   1.0 mph /  1.6 km/h 93 % 0.00 in /  0 mm
08:37 41.9 °F /  5.5 °C 39.7 °F /  4.3 °C 30.46 in /  1031.4 hPa Calm   1.0 mph /  1.6 km/h 92 % 0.00 in /  0 mm
08:42 42.4 °F /  5.8 °C 39.7 °F /  4.3 °C 30.46 in /  1031.4 hPa Calm   1.0 mph /  1.6 km/h 90 % 0.00 in /  0 mm
08:47 43.9 °F /  6.6 °C 41.2 °F /  5.1 °C 30.46 in /  1031.4 hPa Calm   1.0 mph /  1.6 km/h 90 % 0.00 in /  0 mm
08:52 45.5 °F /  7.5 °C 42.1 °F /  5.6 °C 30.46 in /  1031.4 hPa Calm   1.0 mph /  1.6 km/h 88 % 0.00 in /  0 mm
08:57 46.2 °F /  7.9 °C 41.0 °F /  5 °C 30.46 in /  1031.4 hPa Calm   1.0 mph /  1.6 km/h 82 % 0.00 in /  0 mm
09:02 46.8 °F /  8.2 °C 41.0 °F /  5 °C 30.47 in /  1031.7 hPa ENE 1.0 mph /  1.6 km/h 1.0 mph /  1.6 km/h 80 % 0.00 in /  0 mm
09:07 47.5 °F /  8.6 °C 41.0 °F /  5 °C 30.46 in /  1031.4 hPa Calm   1.0 mph /  1.6 km/h 78 % 0.00 in /  0 mm
09:12 48.4 °F /  9.1 °C 41.5 °F /  5.3 °C 30.47 in /  1031.7 hPa Calm   2.0 mph /  3.2 km/h 77 % 0.00 in /  0 mm
09:17 49.5 °F /  9.7 °C 41.5 °F /  5.3 °C 30.47 in /  1031.7 hPa Calm   2.0 mph /  3.2 km/h 74 % 0.00 in /  0 mm
09:22 50.4 °F /  10.2 °C 41.7 °F /  5.4 °C 30.47 in /  1031.7 hPa East 1.0 mph /  1.6 km/h 2.0 mph /  3.2 km/h 72 % 0.00 in /  0 mm
09:27 51.3 °F /  10.7 °C 41.0 °F /  5 °C 30.47 in /  1031.7 hPa Calm   2.0 mph /  3.2 km/h 68 % 0.00 in /  0 mm
09:32 52.0 °F /  11.1 °C 41.4 °F /  5.2 °C 30.47 in /  1031.7 hPa Calm   2.0 mph /  3.2 km/h 67 % 0.00 in /  0 mm
09:37 52.9 °F /  11.6 °C 41.9 °F /  5.5 °C 30.48 in /  1032.1 hPa Calm   2.0 mph /  3.2 km/h 66 % 0.00 in /  0 mm
09:42 53.4 °F /  11.9 °C 41.9 °F /  5.5 °C 30.48 in /  1032.1 hPa Calm   2.0 mph /  3.2 km/h 65 % 0.00 in /  0 mm
09:47 54.3 °F /  12.4 °C 42.1 °F /  5.6 °C 30.48 in /  1032.1 hPa SSE 2.0 mph /  3.2 km/h 3.0 mph /  4.8 km/h 63 % 0.00 in /  0 mm
09:52 54.9 °F /  12.7 °C 40.3 °F /  4.6 °C 30.48 in /  1032.1 hPa East 3.0 mph /  4.8 km/h 3.0 mph /  4.8 km/h 58 % 0.00 in /  0 mm
09:57 54.9 °F /  12.7 °C 39.0 °F /  3.9 °C 30.48 in /  1032.1 hPa East 2.0 mph /  3.2 km/h 5.0 mph /  8 km/h 55 % 0.00 in /  0 mm
10:02 55.2 °F /  12.9 °C 39.4 °F /  4.1 °C 30.48 in /  1032.1 hPa ESE 3.0 mph /  4.8 km/h 5.0 mph /  8 km/h 55 % 0.00 in /  0 mm
10:07 55.6 °F /  13.1 °C 37.8 °F /  3.2 °C 30.48 in /  1032.1 hPa ESE 1.0 mph /  1.6 km/h 6.0 mph /  9.7 km/h 51 % 0.00 in /  0 mm
10:12 55.9 °F /  13.3 °C 38.5 °F /  3.6 °C 30.48 in /  1032.1 hPa East 5.0 mph /  8 km/h 7.0 mph /  11.3 km/h 52 % 0.00 in /  0 mm
10:17 56.1 °F /  13.4 °C 37.2 °F /  2.9 °C 30.48 in /  1032.1 hPa ENE 3.0 mph /  4.8 km/h 7.0 mph /  11.3 km/h 49 % 0.00 in /  0 mm
10:22 56.3 °F /  13.5 °C 36.9 °F /  2.7 °C 30.48 in /  1032.1 hPa SSE 3.0 mph /  4.8 km/h 7.0 mph /  11.3 km/h 48 % 0.00 in /  0 mm
10:27 56.8 °F /  13.8 °C 36.9 °F /  2.7 °C 30.47 in /  1031.7 hPa East 3.0 mph /  4.8 km/h 8.0 mph /  12.9 km/h 47 % 0.00 in /  0 mm
10:32 57.0 °F /  13.9 °C 36.0 °F /  2.2 °C 30.48 in /  1032.1 hPa WNW 1.0 mph /  1.6 km/h 8.0 mph /  12.9 km/h 45 % 0.00 in /  0 mm
10:37 56.7 °F /  13.7 °C 35.1 °F /  1.7 °C 30.48 in /  1032.1 hPa SSE 2.0 mph /  3.2 km/h 8.0 mph /  12.9 km/h 44 % 0.00 in /  0 mm
10:42 56.7 °F /  13.7 °C 36.1 °F /  2.3 °C 30.47 in /  1031.7 hPa ESE 2.0 mph /  3.2 km/h 7.0 mph /  11.3 km/h 46 % 0.00 in /  0 mm
10:47 57.2 °F /  14 °C 35.4 °F /  1.9 °C 30.47 in /  1031.7 hPa ENE 3.0 mph /  4.8 km/h 9.0 mph /  14.5 km/h 44 % 0.00 in /  0 mm
10:52 57.9 °F /  14.4 °C 36.1 °F /  2.3 °C 30.47 in /  1031.7 hPa SSE 4.0 mph /  6.4 km/h 9.0 mph /  14.5 km/h 44 % 0.00 in /  0 mm
10:57 58.5 °F /  14.7 °C 36.0 °F /  2.2 °C 30.47 in /  1031.7 hPa Calm   9.0 mph /  14.5 km/h 43 % 0.00 in /  0 mm
11:02 58.6 °F /  14.8 °C 35.6 °F /  2 °C 30.47 in /  1031.7 hPa SE 6.0 mph /  9.7 km/h 8.0 mph /  12.9 km/h 42 % 0.00 in /  0 mm
11:07 58.8 °F /  14.9 °C 35.8 °F /  2.1 °C 30.46 in /  1031.4 hPa ESE 8.0 mph /  12.9 km/h 8.0 mph /  12.9 km/h 42 % 0.00 in /  0 mm
11:12 58.8 °F /  14.9 °C 35.2 °F /  1.8 °C 30.46 in /  1031.4 hPa SSE 2.0 mph /  3.2 km/h 10.0 mph /  16.1 km/h 41 % 0.00 in /  0 mm
11:17 58.8 °F /  14.9 °C 35.2 °F /  1.8 °C 30.46 in /  1031.4 hPa NE 2.0 mph /  3.2 km/h 10.0 mph /  16.1 km/h 41 % 0.00 in /  0 mm
11:22 58.8 °F /  14.9 °C 34.5 °F /  1.4 °C 30.46 in /  1031.4 hPa SE 3.0 mph /  4.8 km/h 10.0 mph /  16.1 km/h 40 % 0.00 in /  0 mm
11:27 58.8 °F /  14.9 °C 34.0 °F /  1.1 °C 30.46 in /  1031.4 hPa East 5.0 mph /  8 km/h 8.0 mph /  12.9 km/h 39 % 0.00 in /  0 mm
11:32 59.0 °F /  15 °C 34.2 °F /  1.2 °C 30.45 in /  1031 hPa SSE 1.0 mph /  1.6 km/h 8.0 mph /  12.9 km/h 39 % 0.00 in /  0 mm
11:37 59.4 °F /  15.2 °C 33.1 °F /  0.6 °C 30.45 in /  1031 hPa SSE 7.0 mph /  11.3 km/h 7.0 mph /  11.3 km/h 37 % 0.00 in /  0 mm
11:42 59.4 °F /  15.2 °C 30.9 °F /  -0.6 °C 30.45 in /  1031 hPa SE 4.0 mph /  6.4 km/h 9.0 mph /  14.5 km/h 34 % 0.00 in /  0 mm
11:47 59.5 °F /  15.3 °C 30.4 °F /  -0.9 °C 30.45 in /  1031 hPa ESE 6.0 mph /  9.7 km/h 9.0 mph /  14.5 km/h 33 % 0.00 in /  0 mm
11:52 59.5 °F /  15.3 °C 30.4 °F /  -0.9 °C 30.45 in /  1031 hPa ENE 2.0 mph /  3.2 km/h 9.0 mph /  14.5 km/h 33 % 0.00 in /  0 mm
11:57 59.9 °F /  15.5 °C 31.5 °F /  -0.3 °C 30.45 in /  1031 hPa ESE 2.0 mph /  3.2 km/h 9.0 mph /  14.5 km/h 34 % 0.00 in /  0 mm
12:02 60.6 °F /  15.9 °C 32.2 °F /  0.1 °C 30.44 in /  1030.7 hPa SSE 3.0 mph /  4.8 km/h 9.0 mph /  14.5 km/h 34 % 0.00 in /  0 mm
12:07 61.0 °F /  16.1 °C 32.4 °F /  0.2 °C 30.44 in /  1030.7 hPa SE 4.0 mph /  6.4 km/h 9.0 mph /  14.5 km/h 34 % 0.00 in /  0 mm
12:12 61.3 °F /  16.3 °C 31.3 °F /  -0.4 °C 30.44 in /  1030.7 hPa SE 2.0 mph /  3.2 km/h 8.0 mph /  12.9 km/h 32 % 0.00 in /  0 mm
12:17 61.5 °F /  16.4 °C 31.5 °F /  -0.3 °C 30.43 in /  1030.4 hPa ENE 3.0 mph /  4.8 km/h 11.0 mph /  17.7 km/h 32 % 0.00 in /  0 mm
12:22 61.9 °F /  16.6 °C 31.6 °F /  -0.2 °C 30.43 in /  1030.4 hPa ESE 6.0 mph /  9.7 km/h 11.0 mph /  17.7 km/h 32 % 0.00 in /  0 mm
12:27 61.3 °F /  16.3 °C 31.3 °F /  -0.4 °C 30.43 in /  1030.4 hPa ENE 3.0 mph /  4.8 km/h 11.0 mph /  17.7 km/h 32 % 0.00 in /  0 mm
12:32 61.5 °F /  16.4 °C 32.2 °F /  0.1 °C 30.43 in /  1030.4 hPa South 4.0 mph /  6.4 km/h 9.0 mph /  14.5 km/h 33 % 0.00 in /  0 mm
12:37 61.9 °F /  16.6 °C 31.6 °F /  -0.2 °C 30.43 in /  1030.4 hPa SSE 4.0 mph /  6.4 km/h 9.0 mph /  14.5 km/h 32 % 0.00 in /  0 mm
12:42 61.9 °F /  16.6 °C 33.3 °F /  0.7 °C 30.42 in /  1030 hPa NE 3.0 mph /  4.8 km/h 9.0 mph /  14.5 km/h 34 % 0.00 in /  0 mm
12:47 61.7 °F /  16.5 °C 33.1 °F /  0.6 °C 30.42 in /  1030 hPa ESE 1.0 mph /  1.6 km/h 10.0 mph /  16.1 km/h 34 % 0.00 in /  0 mm
12:52 61.3 °F /  16.3 °C 32.7 °F /  0.4 °C 30.42 in /  1030 hPa ESE 1.0 mph /  1.6 km/h 10.0 mph /  16.1 km/h 34 % 0.00 in /  0 mm
12:57 61.3 °F /  16.3 °C 32.0 °F /  0 °C 30.42 in /  1030 hPa ENE 4.0 mph /  6.4 km/h 10.0 mph /  16.1 km/h 33 % 0.00 in /  0 mm
13:01 61.2 °F /  16.2 °C 32.5 °F /  0.3 °C 30.41 in /  1029.7 hPa SE 3.0 mph /  4.8 km/h 10.0 mph /  16.1 km/h 34 % 0.00 in /  0 mm
13:07 61.3 °F /  16.3 °C 32.0 °F /  0 °C 30.41 in /  1029.7 hPa SSE 5.0 mph /  8 km/h 10.0 mph /  16.1 km/h 33 % 0.00 in /  0 mm
13:12 61.2 °F /  16.2 °C 30.2 °F /  -1 °C 30.40 in /  1029.3 hPa SE 7.0 mph /  11.3 km/h 12.0 mph /  19.3 km/h 31 % 0.00 in /  0 mm
13:17 61.0 °F /  16.1 °C 30.2 °F /  -1 °C 30.40 in /  1029.3 hPa SE 2.0 mph /  3.2 km/h 13.0 mph /  20.9 km/h 31 % 0.00 in /  0 mm
13:22 61.0 °F /  16.1 °C 30.9 °F /  -0.6 °C 30.40 in /  1029.3 hPa SE 2.0 mph /  3.2 km/h 13.0 mph /  20.9 km/h 32 % 0.00 in /  0 mm
13:27 61.2 °F /  16.2 °C 31.1 °F /  -0.5 °C 30.40 in /  1029.3 hPa ESE 2.0 mph /  3.2 km/h 13.0 mph /  20.9 km/h 32 % 0.00 in /  0 mm
13:32 61.3 °F /  16.3 °C 30.4 °F /  -0.9 °C 30.40 in /  1029.3 hPa South 2.0 mph /  3.2 km/h 8.0 mph /  12.9 km/h 31 % 0.00 in /  0 mm
13:37 61.3 °F /  16.3 °C 29.7 °F /  -1.3 °C 30.39 in /  1029 hPa East 3.0 mph /  4.8 km/h 8.0 mph /  12.9 km/h 30 % 0.00 in /  0 mm
13:42 61.2 °F /  16.2 °C 30.2 °F /  -1 °C 30.39 in /  1029 hPa SE 2.0 mph /  3.2 km/h 9.0 mph /  14.5 km/h 31 % 0.00 in /  0 mm
13:47 61.2 °F /  16.2 °C 31.1 °F /  -0.5 °C 30.39 in /  1029 hPa East 3.0 mph /  4.8 km/h 9.0 mph /  14.5 km/h 32 % 0.00 in /  0 mm
13:52 61.3 °F /  16.3 °C 31.3 °F /  -0.4 °C 30.38 in /  1028.7 hPa ENE 4.0 mph /  6.4 km/h 9.0 mph /  14.5 km/h 32 % 0.00 in /  0 mm
13:57 61.2 °F /  16.2 °C 31.1 °F /  -0.5 °C 30.38 in /  1028.7 hPa SE 4.0 mph /  6.4 km/h 9.0 mph /  14.5 km/h 32 % 0.00 in /  0 mm
14:02 61.3 °F /  16.3 °C 32.0 °F /  0 °C 30.38 in /  1028.7 hPa ESE 3.0 mph /  4.8 km/h 8.0 mph /  12.9 km/h 33 % 0.00 in /  0 mm
14:07 61.2 °F /  16.2 °C 32.5 °F /  0.3 °C 30.38 in /  1028.7 hPa SSW 2.0 mph /  3.2 km/h 7.0 mph /  11.3 km/h 34 % 0.00 in /  0 mm
14:12 61.7 °F /  16.5 °C 33.1 °F /  0.6 °C 30.38 in /  1028.7 hPa East 6.0 mph /  9.7 km/h 8.0 mph /  12.9 km/h 34 % 0.00 in /  0 mm
14:16 61.5 °F /  16.4 °C 32.9 °F /  0.5 °C 30.38 in /  1028.7 hPa ESE 3.0 mph /  4.8 km/h 8.0 mph /  12.9 km/h 34 % 0.00 in /  0 mm
14:22 61.5 °F /  16.4 °C 32.2 °F /  0.1 °C 30.38 in /  1028.7 hPa SSE 9.0 mph /  14.5 km/h 10.0 mph /  16.1 km/h 33 % 0.00 in /  0 mm
14:27 61.3 °F /  16.3 °C 31.3 °F /  -0.4 °C 30.38 in /  1028.7 hPa SSE 3.0 mph /  4.8 km/h 10.0 mph /  16.1 km/h 32 % 0.00 in /  0 mm
14:32 61.0 °F /  16.1 °C 30.2 °F /  -1 °C 30.37 in /  1028.3 hPa SSE 4.0 mph /  6.4 km/h 11.0 mph /  17.7 km/h 31 % 0.00 in /  0 mm
14:37 61.0 °F /  16.1 °C 30.9 °F /  -0.6 °C 30.37 in /  1028.3 hPa SE 3.0 mph /  4.8 km/h 11.0 mph /  17.7 km/h 32 % 0.00 in /  0 mm
14:41 60.6 °F /  15.9 °C 30.6 °F /  -0.8 °C 30.37 in /  1028.3 hPa ESE 3.0 mph /  4.8 km/h 11.0 mph /  17.7 km/h 32 % 0.00 in /  0 mm
14:46 60.4 °F /  15.8 °C 32.7 °F /  0.4 °C 30.37 in /  1028.3 hPa ESE 3.0 mph /  4.8 km/h 8.0 mph /  12.9 km/h 35 % 0.00 in /  0 mm
14:51 60.6 °F /  15.9 °C 33.4 °F /  0.8 °C 30.37 in /  1028.3 hPa ESE 2.0 mph /  3.2 km/h 8.0 mph /  12.9 km/h 36 % 0.00 in /  0 mm
14:56 61.0 °F /  16.1 °C 33.8 °F /  1 °C 30.36 in /  1028 hPa SSE 1.0 mph /  1.6 km/h 7.0 mph /  11.3 km/h 36 % 0.00 in /  0 mm
15:01 61.0 °F /  16.1 °C 33.8 °F /  1 °C 30.36 in /  1028 hPa SSE 4.0 mph /  6.4 km/h 7.0 mph /  11.3 km/h 36 % 0.00 in /  0 mm
15:06 61.0 °F /  16.1 °C 34.5 °F /  1.4 °C 30.36 in /  1028 hPa East 8.0 mph /  12.9 km/h 8.0 mph /  12.9 km/h 37 % 0.00 in /  0 mm
15:11 60.6 °F /  15.9 °C 34.9 °F /  1.6 °C 30.36 in /  1028 hPa ESE 4.0 mph /  6.4 km/h 10.0 mph /  16.1 km/h 38 % 0.00 in /  0 mm
15:16 60.4 °F /  15.8 °C 34.7 °F /  1.5 °C 30.36 in /  1028 hPa SSE 4.0 mph /  6.4 km/h 10.0 mph /  16.1 km/h 38 % 0.00 in /  0 mm
15:21 60.3 °F /  15.7 °C 34.5 °F /  1.4 °C 30.36 in /  1028 hPa ESE 9.0 mph /  14.5 km/h 11.0 mph /  17.7 km/h 38 % 0.00 in /  0 mm
15:26 60.3 °F /  15.7 °C 35.8 °F /  2.1 °C 30.35 in /  1027.7 hPa ESE 2.0 mph /  3.2 km/h 11.0 mph /  17.7 km/h 40 % 0.00 in /  0 mm
15:31 60.3 °F /  15.7 °C 35.8 °F /  2.1 °C 30.35 in /  1027.7 hPa SSE 3.0 mph /  4.8 km/h 11.0 mph /  17.7 km/h 40 % 0.00 in /  0 mm
15:36 60.3 °F /  15.7 °C 36.5 °F /  2.5 °C 30.35 in /  1027.7 hPa SE 7.0 mph /  11.3 km/h 9.0 mph /  14.5 km/h 41 % 0.00 in /  0 mm
15:41 60.3 °F /  15.7 °C 37.0 °F /  2.8 °C 30.35 in /  1027.7 hPa East 1.0 mph /  1.6 km/h 9.0 mph /  14.5 km/h 42 % 0.00 in /  0 mm
15:46 60.3 °F /  15.7 °C 35.8 °F /  2.1 °C 30.35 in /  1027.7 hPa East 5.0 mph /  8 km/h 9.0 mph /  14.5 km/h 40 % 0.00 in /  0 mm
15:51 60.1 °F /  15.6 °C 35.6 °F /  2 °C 30.36 in /  1028 hPa East 2.0 mph /  3.2 km/h 9.0 mph /  14.5 km/h 40 % 0.00 in /  0 mm
15:56 60.1 °F /  15.6 °C 36.3 °F /  2.4 °C 30.36 in /  1028 hPa SE 3.0 mph /  4.8 km/h 9.0 mph /  14.5 km/h 41 % 0.00 in /  0 mm
16:01 60.3 °F /  15.7 °C 35.8 °F /  2.1 °C 30.35 in /  1027.7 hPa East 7.0 mph /  11.3 km/h 9.0 mph /  14.5 km/h 40 % 0.00 in /  0 mm
16:06 59.9 °F /  15.5 °C 35.6 °F /  2 °C 30.35 in /  1027.7 hPa SE 2.0 mph /  3.2 km/h 9.0 mph /  14.5 km/h 40 % 0.00 in /  0 mm
16:11 59.9 °F /  15.5 °C 36.1 °F /  2.3 °C 30.35 in /  1027.7 hPa ESE 1.0 mph /  1.6 km/h 9.0 mph /  14.5 km/h 41 % 0.00 in /  0 mm
16:16 60.1 °F /  15.6 °C 36.3 °F /  2.4 °C 30.36 in /  1028 hPa South 4.0 mph /  6.4 km/h 9.0 mph /  14.5 km/h 41 % 0.00 in /  0 mm
16:21 60.1 °F /  15.6 °C 36.9 °F /  2.7 °C 30.36 in /  1028 hPa SSE 3.0 mph /  4.8 km/h 11.0 mph /  17.7 km/h 42 % 0.00 in /  0 mm
16:26 59.9 °F /  15.5 °C 36.1 °F /  2.3 °C 30.36 in /  1028 hPa SE 5.0 mph /  8 km/h 11.0 mph /  17.7 km/h 41 % 0.00 in /  0 mm
16:31 59.5 °F /  15.3 °C 36.5 °F /  2.5 °C 30.36 in /  1028 hPa SSE 3.0 mph /  4.8 km/h 11.0 mph /  17.7 km/h 42 % 0.00 in /  0 mm
16:36 59.4 °F /  15.2 °C 36.3 °F /  2.4 °C 30.36 in /  1028 hPa SSE 7.0 mph /  11.3 km/h 9.0 mph /  14.5 km/h 42 % 0.00 in /  0 mm
16:41 59.0 °F /  15 °C 36.0 °F /  2.2 °C 30.36 in /  1028 hPa East 6.0 mph /  9.7 km/h 9.0 mph /  14.5 km/h 42 % 0.00 in /  0 mm
16:46 58.8 °F /  14.9 °C 37.0 °F /  2.8 °C 30.35 in /  1027.7 hPa ESE 3.0 mph /  4.8 km/h 9.0 mph /  14.5 km/h 44 % 0.00 in /  0 mm
16:51 58.6 °F /  14.8 °C 37.4 °F /  3 °C 30.35 in /  1027.7 hPa SSE 6.0 mph /  9.7 km/h 9.0 mph /  14.5 km/h 45 % 0.00 in /  0 mm
16:56 58.3 °F /  14.6 °C 37.0 °F /  2.8 °C 30.35 in /  1027.7 hPa ESE 5.0 mph /  8 km/h 11.0 mph /  17.7 km/h 45 % 0.00 in /  0 mm
17:01 58.1 °F /  14.5 °C 37.4 °F /  3 °C 30.35 in /  1027.7 hPa ESE 5.0 mph /  8 km/h 11.0 mph /  17.7 km/h 46 % 0.00 in /  0 mm
17:06 57.7 °F /  14.3 °C 37.0 °F /  2.8 °C 30.35 in /  1027.7 hPa South 4.0 mph /  6.4 km/h 11.0 mph /  17.7 km/h 46 % 0.00 in /  0 mm
17:11 57.6 °F /  14.2 °C 37.4 °F /  3 °C 30.35 in /  1027.7 hPa SE 4.0 mph /  6.4 km/h 12.0 mph /  19.3 km/h 47 % 0.00 in /  0 mm
17:16 57.4 °F /  14.1 °C 37.9 °F /  3.3 °C 30.35 in /  1027.7 hPa SE 5.0 mph /  8 km/h 12.0 mph /  19.3 km/h 48 % 0.00 in /  0 mm
17:21 57.0 °F /  13.9 °C 37.6 °F /  3.1 °C 30.35 in /  1027.7 hPa ESE 4.0 mph /  6.4 km/h 12.0 mph /  19.3 km/h 48 % 0.00 in /  0 mm
17:26 56.7 °F /  13.7 °C 37.8 °F /  3.2 °C 30.36 in /  1028 hPa SE 4.0 mph /  6.4 km/h 12.0 mph /  19.3 km/h 49 % 0.00 in /  0 mm
17:31 56.5 °F /  13.6 °C 38.1 °F /  3.4 °C 30.36 in /  1028 hPa ESE 7.0 mph /  11.3 km/h 12.0 mph /  19.3 km/h 50 % 0.00 in /  0 mm
17:36 55.9 °F /  13.3 °C 37.6 °F /  3.1 °C 30.36 in /  1028 hPa ESE 3.0 mph /  4.8 km/h 11.0 mph /  17.7 km/h 50 % 0.00 in /  0 mm
17:41 55.8 °F /  13.2 °C 37.4 °F /  3 °C 30.36 in /  1028 hPa SE 2.0 mph /  3.2 km/h 11.0 mph /  17.7 km/h 50 % 0.00 in /  0 mm
17:46 55.2 °F /  12.9 °C 36.9 °F /  2.7 °C 30.35 in /  1027.7 hPa SSE 5.0 mph /  8 km/h 11.0 mph /  17.7 km/h 50 % 0.00 in /  0 mm
17:51 55.0 °F /  12.8 °C 36.7 °F /  2.6 °C 30.35 in /  1027.7 hPa East 4.0 mph /  6.4 km/h 9.0 mph /  14.5 km/h 50 % 0.00 in /  0 mm
17:56 54.7 °F /  12.6 °C 36.3 °F /  2.4 °C 30.35 in /  1027.7 hPa ESE 4.0 mph /  6.4 km/h 9.0 mph /  14.5 km/h 50 % 0.00 in /  0 mm
18:01 54.3 °F /  12.4 °C 36.5 °F /  2.5 °C 30.35 in /  1027.7 hPa East 6.0 mph /  9.7 km/h 9.0 mph /  14.5 km/h 51 % 0.00 in /  0 mm
18:06 54.1 °F /  12.3 °C 36.3 °F /  2.4 °C 30.35 in /  1027.7 hPa ESE 6.0 mph /  9.7 km/h 10.0 mph /  16.1 km/h 51 % 0.00 in /  0 mm
18:11 53.8 °F /  12.1 °C 36.5 °F /  2.5 °C 30.36 in /  1028 hPa ESE 4.0 mph /  6.4 km/h 10.0 mph /  16.1 km/h 52 % 0.00 in /  0 mm
18:16 53.6 °F /  12 °C 36.9 °F /  2.7 °C 30.35 in /  1027.7 hPa SSE 2.0 mph /  3.2 km/h 10.0 mph /  16.1 km/h 53 % 0.00 in /  0 mm
18:21 53.2 °F /  11.8 °C 37.0 °F /  2.8 °C 30.36 in /  1028 hPa South 7.0 mph /  11.3 km/h 9.0 mph /  14.5 km/h 54 % 0.00 in /  0 mm
18:26 53.1 °F /  11.7 °C 37.4 °F /  3 °C 30.36 in /  1028 hPa ESE 6.0 mph /  9.7 km/h 8.0 mph /  12.9 km/h 55 % 0.00 in /  0 mm
18:31 52.9 °F /  11.6 °C 37.2 °F /  2.9 °C 30.35 in /  1027.7 hPa Calm   10.0 mph /  16.1 km/h 55 % 0.00 in /  0 mm
18:36 52.5 °F /  11.4 °C 37.2 °F /  2.9 °C 30.35 in /  1027.7 hPa East 3.0 mph /  4.8 km/h 10.0 mph /  16.1 km/h 56 % 0.00 in /  0 mm
18:41 52.3 °F /  11.3 °C 37.0 °F /  2.8 °C 30.35 in /  1027.7 hPa ESE 2.0 mph /  3.2 km/h 10.0 mph /  16.1 km/h 56 % 0.00 in /  0 mm
18:46 52.3 °F /  11.3 °C 37.0 °F /  2.8 °C 30.36 in /  1028 hPa SE 1.0 mph /  1.6 km/h 7.0 mph /  11.3 km/h 56 % 0.00 in /  0 mm
18:51 52.0 °F /  11.1 °C 37.2 °F /  2.9 °C 30.36 in /  1028 hPa ESE 1.0 mph /  1.6 km/h 7.0 mph /  11.3 km/h 57 % 0.00 in /  0 mm
18:56 51.8 °F /  11 °C 37.0 °F /  2.8 °C 30.36 in /  1028 hPa East 5.0 mph /  8 km/h 7.0 mph /  11.3 km/h 57 % 0.00 in /  0 mm
19:01 51.6 °F /  10.9 °C 37.4 °F /  3 °C 30.35 in /  1027.7 hPa ESE 2.0 mph /  3.2 km/h 6.0 mph /  9.7 km/h 58 % 0.00 in /  0 mm
19:06 51.6 °F /  10.9 °C 37.4 °F /  3 °C 30.35 in /  1027.7 hPa South 2.0 mph /  3.2 km/h 6.0 mph /  9.7 km/h 58 % 0.00 in /  0 mm
19:11 51.4 °F /  10.8 °C 37.6 °F /  3.1 °C 30.36 in /  1028 hPa South 2.0 mph /  3.2 km/h 6.0 mph /  9.7 km/h 59 % 0.00 in /  0 mm
19:16 51.3 °F /  10.7 °C 37.8 °F /  3.2 °C 30.36 in /  1028 hPa ESE 2.0 mph /  3.2 km/h 6.0 mph /  9.7 km/h 60 % 0.00 in /  0 mm
19:21 51.3 °F /  10.7 °C 38.3 °F /  3.5 °C 30.36 in /  1028 hPa ESE 1.0 mph /  1.6 km/h 6.0 mph /  9.7 km/h 61 % 0.00 in /  0 mm
19:26 51.1 °F /  10.6 °C 38.5 °F /  3.6 °C 30.36 in /  1028 hPa East 3.0 mph /  4.8 km/h 6.0 mph /  9.7 km/h 62 % 0.00 in /  0 mm
19:31 50.9 °F /  10.5 °C 38.3 °F /  3.5 °C 30.36 in /  1028 hPa SE 2.0 mph /  3.2 km/h 5.0 mph /  8 km/h 62 % 0.00 in /  0 mm
19:36 50.7 °F /  10.4 °C 38.7 °F /  3.7 °C 30.36 in /  1028 hPa ESE 1.0 mph /  1.6 km/h 5.0 mph /  8 km/h 63 % 0.00 in /  0 mm
19:41 50.5 °F /  10.3 °C 38.8 °F /  3.8 °C 30.36 in /  1028 hPa SE 1.0 mph /  1.6 km/h 4.0 mph /  6.4 km/h 64 % 0.00 in /  0 mm
19:46 50.4 °F /  10.2 °C 39.0 °F /  3.9 °C 30.36 in /  1028 hPa Calm   3.0 mph /  4.8 km/h 65 % 0.00 in /  0 mm
19:51 50.2 °F /  10.1 °C 38.8 °F /  3.8 °C 30.36 in /  1028 hPa Calm   3.0 mph /  4.8 km/h 65 % 0.00 in /  0 mm
19:56 49.8 °F /  9.9 °C 38.8 °F /  3.8 °C 30.36 in /  1028 hPa Calm   3.0 mph /  4.8 km/h 66 % 0.00 in /  0 mm
20:01 49.8 °F /  9.9 °C 39.4 °F /  4.1 °C 30.36 in /  1028 hPa SE 1.0 mph /  1.6 km/h 5.0 mph /  8 km/h 67 % 0.00 in /  0 mm
20:06 49.6 °F /  9.8 °C 39.2 °F /  4 °C 30.36 in /  1028 hPa Calm   5.0 mph /  8 km/h 67 % 0.00 in /  0 mm
20:11 49.6 °F /  9.8 °C 39.6 °F /  4.2 °C 30.36 in /  1028 hPa Calm   5.0 mph /  8 km/h 68 % 0.00 in /  0 mm
20:16 49.6 °F /  9.8 °C 39.6 °F /  4.2 °C 30.36 in /  1028 hPa Calm   4.0 mph /  6.4 km/h 68 % 0.00 in /  0 mm
20:21 49.5 °F /  9.7 °C 39.4 °F /  4.1 °C 30.37 in /  1028.3 hPa ESE 2.0 mph /  3.2 km/h 4.0 mph /  6.4 km/h 68 % 0.00 in /  0 mm
20:26 49.3 °F /  9.6 °C 39.2 °F /  4 °C 30.36 in /  1028 hPa ESE 1.0 mph /  1.6 km/h 3.0 mph /  4.8 km/h 68 % 0.00 in /  0 mm
20:31 49.3 °F /  9.6 °C 39.2 °F /  4 °C 30.36 in /  1028 hPa SE 1.0 mph /  1.6 km/h 3.0 mph /  4.8 km/h 68 % 0.00 in /  0 mm
20:36 49.3 °F /  9.6 °C 39.2 °F /  4 °C 30.37 in /  1028.3 hPa SE 1.0 mph /  1.6 km/h 3.0 mph /  4.8 km/h 68 % 0.00 in /  0 mm
20:41 49.1 °F /  9.5 °C 39.0 °F /  3.9 °C 30.37 in /  1028.3 hPa Calm   4.0 mph /  6.4 km/h 68 % 0.00 in /  0 mm
20:46 48.9 °F /  9.4 °C 38.5 °F /  3.6 °C 30.37 in /  1028.3 hPa Calm   4.0 mph /  6.4 km/h 67 % 0.00 in /  0 mm
20:51 48.7 °F /  9.3 °C 38.3 °F /  3.5 °C 30.36 in /  1028 hPa SE 2.0 mph /  3.2 km/h 4.0 mph /  6.4 km/h 67 % 0.00 in /  0 mm
20:56 48.7 °F /  9.3 °C 37.9 °F /  3.3 °C 30.37 in /  1028.3 hPa SSE 1.0 mph /  1.6 km/h 4.0 mph /  6.4 km/h 66 % 0.00 in /  0 mm
21:01 48.7 °F /  9.3 °C 37.6 °F /  3.1 °C 30.36 in /  1028 hPa Calm   4.0 mph /  6.4 km/h 65 % 0.00 in /  0 mm
21:06 48.7 °F /  9.3 °C 37.6 °F /  3.1 °C 30.36 in /  1028 hPa Calm   4.0 mph /  6.4 km/h 65 % 0.00 in /  0 mm
21:11 48.7 °F /  9.3 °C 37.6 °F /  3.1 °C 30.36 in /  1028 hPa SE 2.0 mph /  3.2 km/h 4.0 mph /  6.4 km/h 65 % 0.00 in /  0 mm
21:16 48.7 °F /  9.3 °C 37.6 °F /  3.1 °C 30.37 in /  1028.3 hPa SE 1.0 mph /  1.6 km/h 4.0 mph /  6.4 km/h 65 % 0.00 in /  0 mm
21:21 48.7 °F /  9.3 °C 37.6 °F /  3.1 °C 30.36 in /  1028 hPa SE 1.0 mph /  1.6 km/h 4.0 mph /  6.4 km/h 65 % 0.00 in /  0 mm
21:26 48.6 °F /  9.2 °C 37.8 °F /  3.2 °C 30.37 in /  1028.3 hPa SE 1.0 mph /  1.6 km/h 4.0 mph /  6.4 km/h 66 % 0.00 in /  0 mm
21:31 48.6 °F /  9.2 °C 37.8 °F /  3.2 °C 30.37 in /  1028.3 hPa SSE 1.0 mph /  1.6 km/h 4.0 mph /  6.4 km/h 66 % 0.00 in /  0 mm
21:36 48.6 °F /  9.2 °C 37.8 °F /  3.2 °C 30.38 in /  1028.7 hPa ESE 1.0 mph /  1.6 km/h 4.0 mph /  6.4 km/h 66 % 0.00 in /  0 mm
21:41 48.4 °F /  9.1 °C 37.9 °F /  3.3 °C 30.37 in /  1028.3 hPa Calm   4.0 mph /  6.4 km/h 67 % 0.00 in /  0 mm
21:46 48.2 °F /  9 °C 37.8 °F /  3.2 °C 30.37 in /  1028.3 hPa Calm   2.0 mph /  3.2 km/h 67 % 0.00 in /  0 mm
21:51 48.0 °F /  8.9 °C 37.9 °F /  3.3 °C 30.37 in /  1028.3 hPa Calm   1.0 mph /  1.6 km/h 68 % 0.00 in /  0 mm
21:56 47.8 °F /  8.8 °C 37.8 °F /  3.2 °C 30.37 in /  1028.3 hPa Calm   1.0 mph /  1.6 km/h 68 % 0.00 in /  0 mm
22:02 47.7 °F /  8.7 °C 37.9 °F /  3.3 °C 30.37 in /  1028.3 hPa Calm   1.0 mph /  1.6 km/h 69 % 0.00 in /  0 mm
22:07 47.5 °F /  8.6 °C 37.8 °F /  3.2 °C 30.37 in /  1028.3 hPa Calm   1.0 mph /  1.6 km/h 69 % 0.00 in /  0 mm
22:12 47.5 °F /  8.6 °C 38.1 °F /  3.4 °C 30.37 in /  1028.3 hPa Calm   2.0 mph /  3.2 km/h 70 % 0.00 in /  0 mm
22:17 47.5 °F /  8.6 °C 38.1 °F /  3.4 °C 30.37 in /  1028.3 hPa Calm   2.0 mph /  3.2 km/h 70 % 0.00 in /  0 mm
22:22 47.3 °F /  8.5 °C 37.9 °F /  3.3 °C 30.37 in /  1028.3 hPa Calm   2.0 mph /  3.2 km/h 70 % 0.00 in /  0 mm
22:27 47.1 °F /  8.4 °C 38.1 °F /  3.4 °C 30.37 in /  1028.3 hPa Calm   1.0 mph /  1.6 km/h 71 % 0.00 in /  0 mm
22:32 47.1 °F /  8.4 °C 38.1 °F /  3.4 °C 30.37 in /  1028.3 hPa Calm   1.0 mph /  1.6 km/h 71 % 0.00 in /  0 mm
22:37 46.9 °F /  8.3 °C 38.1 °F /  3.4 °C 30.37 in /  1028.3 hPa Calm   1.0 mph /  1.6 km/h 71 % 0.00 in /  0 mm
22:42 46.8 °F /  8.2 °C 38.3 °F /  3.5 °C 30.37 in /  1028.3 hPa Calm   1.0 mph /  1.6 km/h 72 % 0.00 in /  0 mm
22:46 46.6 °F /  8.1 °C 38.1 °F /  3.4 °C 30.37 in /  1028.3 hPa Calm     72 % 0.00 in /  0 mm
22:52 46.6 °F /  8.1 °C 38.7 °F /  3.7 °C 30.37 in /  1028.3 hPa Calm   1.0 mph /  1.6 km/h 74 % 0.00 in /  0 mm
22:57 46.6 °F /  8.1 °C 38.7 °F /  3.7 °C 30.37 in /  1028.3 hPa Calm   1.0 mph /  1.6 km/h 74 % 0.00 in /  0 mm
23:02 46.4 °F /  8 °C 38.8 °F /  3.8 °C 30.37 in /  1028.3 hPa Calm   1.0 mph /  1.6 km/h 75 % 0.00 in /  0 mm
23:07 46.2 °F /  7.9 °C 38.7 °F /  3.7 °C 30.37 in /  1028.3 hPa Calm   1.0 mph /  1.6 km/h 75 % 0.00 in /  0 mm
23:12 46.2 °F /  7.9 °C 39.0 °F /  3.9 °C 30.37 in /  1028.3 hPa Calm   1.0 mph /  1.6 km/h 76 % 0.00 in /  0 mm
23:17 46.6 °F /  8.1 °C 39.7 °F /  4.3 °C 30.37 in /  1028.3 hPa Calm   1.0 mph /  1.6 km/h 77 % 0.00 in /  0 mm
23:22 46.6 °F /  8.1 °C 39.7 °F /  4.3 °C 30.37 in /  1028.3 hPa Calm   1.0 mph /  1.6 km/h 77 % 0.00 in /  0 mm
23:27 46.6 °F /  8.1 °C 39.4 °F /  4.1 °C 30.36 in /  1028 hPa Calm   1.0 mph /  1.6 km/h 76 % 0.00 in /  0 mm
23:32 46.6 °F /  8.1 °C 39.7 °F /  4.3 °C 30.36 in /  1028 hPa Calm   1.0 mph /  1.6 km/h 77 % 0.00 in /  0 mm
23:37 46.4 °F /  8 °C 39.6 °F /  4.2 °C 30.36 in /  1028 hPa Calm     77 % 0.00 in /  0 mm
23:42 46.2 °F /  7.9 °C 39.7 °F /  4.3 °C 30.35 in /  1027.7 hPa Calm     78 % 0.00 in /  0 mm
23:47 46.4 °F /  8 °C 39.9 °F /  4.4 °C 30.35 in /  1027.7 hPa Calm   1.0 mph /  1.6 km/h 78 % 0.00 in /  0 mm
23:52 46.2 °F /  7.9 °C 39.7 °F /  4.3 °C 30.35 in /  1027.7 hPa Calm   1.0 mph /  1.6 km/h 78 % 0.00 in /  0 mm
23:57 46.2 °F /  7.9 °C 39.7 °F /  4.3 °C 30.35 in /  1027.7 hPa Calm   1.0 mph /  1.6 km/h 78 % 0.00 in /  0 mm
Spring, Texas: Villages of Bridgestone
Compliments of Weather Underground - 2.75 mb

Script developed by  Jim McMurry - jmcmurry@mwt.net Adapted for the template by  Wim van der Kuil - Leuven-Template.eu

You find our weather info also at:

UK Metoffice

WeatherCloud

Weather Underground

Mid-South Weather Network

AWEKAS

Citizen Weather Observer Program (CWOP)

HAMweather, WeatherForYou, PWS Weather

Equipment we use:

Weather-station
Davis Vantage Vue

Weather-program
Meteohub

Weather-server
Debian 7.9 x86 (Guest)

Provider
DreamHost

Davis Vantage Vue

Meteohub

Debian 7.9 x86 (Guest)

DreamHost